Regional Weather Roundup
Issued by NWS

Home | Current Version | Previous Version | Text Only | Print | Product List | Glossary Off
Versions: 1 2 3 4 5 6 7 8 9 10 11 12 13 14 15 16 17 18 19 20 21 22 23 24 25 26 27 28 29 30 31 32 33 34 35 36 37 38 39 40 41 42 43 44 45 46 47 48 49 50

000
ASUS43 KMPX 230001
RWRMN
WEATHER ROUNDUP FOR MINNESOTA
NATIONAL WEATHER SERVICE TWIN CITIES/CHANHASSEN MN
600 PM CST SAT NOV 22 2014


NOTE: "FAIR" INDICATES FEW OR NO CLOUDS BELOW 12,000 FEET WITH NO
SIGNIFICANT WEATHER AND/OR OBSTRUCTIONS TO VISIBILITY. N/A MEANS
CURRENT SKY AND/OR WEATHER CONDITIONS ARE NOT AVAILABLE.

MNZ060>063-068>070-230100-
   Twin Cities Metro

CITY           SKY/WX    TMP DP  RH WIND       PRES   REMARKS
TWIN CITIES    CLOUDY    35  33  92 SE7       29.62F FOG     WCI  29
6HR MIN TEMP:  34; 6HR MAX TEMP:  35;

ST PAUL        CLOUDY    35  34  96 SE7       29.64F WCI  29
CRYSTAL        CLOUDY    36  33  89 SE12      29.61F FOG
BLAINE         CLOUDY    37  37 100 SE10      29.61  FOG
LAKEVILLE      CLOUDY    36  34  93 SE6       29.61F FOG
EDEN PRAIRIE   CLOUDY    35  34  96 S10       29.60F FOG     WCI  27
6HR MIN TEMP:  35; 6HR MAX TEMP:  35;

SOUTH ST PAUL  CLOUDY    36  34  93 SE5       29.63F FOG
LAKE ELMO      CLOUDY    36  34  93 S9        29.64F FOG
$$
MNZ001>005-007-008-013>017-022>024-027-028-230100-
   Northwest Minnesota

CITY           SKY/WX    TMP DP  RH WIND       PRES   REMARKS
BEMIDJI        MOCLDY    37  30  75 SE7       29.48F
HALLOCK        MOCLDY    36  30  80 E8        29.42S
ROSEAU         CLOUDY    36  30  80 E10       29.46F
WARROAD        CLOUDY    34  30  86 E8        29.48F WCI  27
THIEF RVR FALL CLOUDY    37  30  75 E10       29.44F
CROOKSTON      CLOUDY    37  32  81 E7        29.43S
FOSSTON        CLOUDY    37  30  75 SE9       29.44F
DETROIT LAKES  MOCLDY    36  32  87 SE13      29.44F
MOORHEAD       PTCLDY    37  34  87 S16       29.45R
PARK RAPIDS    MOCLDY    36  28  73 SE9       29.47F
MAHNOMEN       FAIR      40  30  67 SE10      29.43F
$$
MNZ006-009>011-018-025>026-230100-
   North Central Minnesota

CITY           SKY/WX    TMP DP  RH WIND       PRES   REMARKS
BAUDETTE       CLOUDY    35  30  82 E9        29.49F WCI  28
FLAG ISLAND    CLOUDY    34  30  86 E8        29.49F WCI  27
INTL FALLS     CLOUDY    34  29  82 E7        29.54S WCI  28
6HR MIN TEMP:  34; 6HR MAX TEMP:  37;

WASKISH        CLOUDY    37  30  75 CALM      29.49F
BIG FORK       CLOUDY    37  28  70 SE3       29.52F
LONGVILLE      MOCLDY    36  28  75 SE10      29.52S
GRAND RAPIDS   MOCLDY    36  27  69 SE8       29.54R
CRANE LAKE     CLOUDY    30  28  93 CALM      29.58F FOG
ORR            MOCLDY    32  28  86 CALM      29.53S
COOK           MOCLDY    30  30 100 CALM      29.56S FOG
WALKER         FAIR      37  29  72 SE6       29.50R
$$
MNZ012-019>021-037-230100-
   Northeast Minnesota

CITY           SKY/WX    TMP DP  RH WIND       PRES   REMARKS
DULUTH         CLOUDY    34  30  85 S13       29.58F FOG     WCI  25
6HR MIN TEMP:  32; 6HR MAX TEMP:  35;

ELY            MOCLDY    30  30 100 SE6       29.58S FOG     WCI  24
HIBBING        MOCLDY    34  28  79 S7        29.56F WCI  28
EVELETH        MOCLDY    32  30  93 SE5       29.59S WCI  27
DULUTH HARBOR  CLOUDY    36  32  87 CALM      29.63F
TWO HARBORS    CLOUDY    36  30  80 CALM      29.60F HAZE
SILVER BAY     MOCLDY    32  30  93 CALM      29.61F FOG
GRAND MARAIS     N/A     35  31  85 CALM      29.65F
G MARAIS ARPRT CLOUDY    30  27  86 S3        29.62S
$$
MNZ029>031-032-039>041-046>048-054>057-064-230100-
   West Central Minnesota

CITY           SKY/WX    TMP DP  RH WIND       PRES   REMARKS
FERGUS FALLS   MOCLDY    34  28  80 S20       29.50R WCI  22
WHEATON        CLOUDY    32  30  93 SE17G23   29.48R FOG     WCI  21
MORRIS         CLOUDY    34  34 100 SE24      29.46F FOG     WCI  21
ALEXANDRIA     FOG       32  31  96 SE21      29.50F VSB 1/2 WCI  20
ELBOW LAKE       N/A     32  32  99 SE20G29   29.47R FOG     WCI  20
WADENA         CLOUDY    30  28  93 SE13      29.49S FOG     WCI  20
GLENWOOD       FOG       32  32 100 SE17      29.51F VSB 1/2 WCI  21
APPLETON       PTCLDY    36  34  93 SE12      29.47F FOG
BENSON         CLOUDY    34  34 100 S15       29.49F FOG     WCI  24
ORTONVILLE     PTCLDY    34  30  86 SE16      29.45S FOG     WCI  23
MADISON        PTCLDY    37  36  93 SE12      29.46F FOG
WILLMAR        CLOUDY    36  34  93 SE14      29.54F FOG
$$
MNZ033>034-036-042>043-049>051-058-059-230100-
   Central Minnesota

CITY           SKY/WX    TMP DP  RH WIND       PRES   REMARKS
ST CLOUD       FOG       34  32  92 SE10      29.56F VSB 3/4 WCI  26
6HR MIN TEMP:  34; 6HR MAX TEMP:  35;

SAUK CENTRE    FOG       32  32  99 SE17      29.54R VSB 1/2 WCI  21
PAYNESVILLE    FOG       31  31 100 E10G18    29.55R VSB 3/4 WCI  22
AITKIN         CLOUDY    36  30  80 S8        29.55S HAZE
PINE RIVER     MOCLDY    34  28  80 SE8       29.57S WCI  27
BRAINERD       CLOUDY    32  30  92 SE12      29.54F FOG     WCI  23
STAPLES        CLOUDY    30  30 100 SE12      29.51S FOG     WCI  21
LONG PRAIRIE   FOG       32  32 100 SE14G20   29.53S VSB 1/2 WCI  22
LITTLE FALLS   FOG       32  32 100 SE10G17   29.56F VSB 3/4 WCI  24
LITCHFIELD     CLOUDY    36  36 100 SE9G16    29.56S FOG
BUFFALO        CLOUDY    34  33  95 SE8       29.59F FOG     WCI  27
MAPLE LAKE     CLOUDY    35  34  99 SE10G16   29.58F FOG     WCI  27
$$
MNZ037-044-045-052-053-230100-
   East Central Minnesota

CITY           SKY/WX    TMP DP  RH WIND       PRES   REMARKS
PRINCETON      CLOUDY    36  34  93 SE10      29.59F FOG
MORA           CLOUDY    32  32 100 SE5       29.62F FOG     WCI  27
CAMBRIDGE      CLOUDY    36  28  75 SE6       29.59F HAZE
RUSH CITY      CLOUDY    33  32  94 SE7       29.63F WCI  27
MOOSE LAKE     CLOUDY    32  32 100 CALM      29.58F FOG
HINCKLEY       CLOUDY    34  32  93 SE5       29.62S FOG     WCI  30
CLOQUET        CLOUDY    34  30  86 S9        29.59F FOG     WCI  26
MCGREGOR       CLOUDY    34  32  93 SE10      29.57F WCI  26
$$
MNZ071>073-080-081-089-090-097-098-230100-
   Southwest Minnesota

CITY           SKY/WX    TMP DP  RH WIND       PRES   REMARKS
MONTEVIDEO     PTCLDY    36  36 100 S12       29.49F FOG
GRANITE FALLS  PTCLDY    35  33  94 SE13      29.51F FOG     WCI  26
CANBY          PTCLDY    39  35  84 S10       29.46F
MARSHALL       PTCLDY    37  34  87 S21G26    29.47F
REDWOOD FALLS  PTCLDY    35  33  92 SE10      29.54F FOG     WCI  27
OLIVIA         CLOUDY    36  34  93 SE13      29.53F FOG
PIPESTONE      PTCLDY    36  36 100 S10       29.48F FOG
WINDOM           N/A     37  36  93 S8        29.53F FOG
WORTHINGTON    PTCLDY    37  34  87 S16       29.53S
JACKSON        MOCLDY    37  34  87 S15       29.56R
TRACY          PTCLDY    38  36  91 S13G20    29.49S
SLAYTON        PTCLDY    36  35  98 S10       29.50F
$$
MNZ065>067-074>077-082>085-091>093-230100-
   South Central Minnesota

CITY           SKY/WX    TMP DP  RH WIND       PRES   REMARKS
MANKATO        CLOUDY    37  34  87 S14       29.59F
NEW ULM        MOCLDY    37  37 100 S12       29.55F FOG
ST JAMES       MOCLDY    37  36  93 SE12      29.56F FOG
FAIRMONT       CLOUDY    37  34  87 S14       29.57F
GLENCOE        CLOUDY    36  36  99 SE8       29.58S FOG
FARIBAULT      CLOUDY    37  36  93 S7        29.61F FOG
OWATONNA       CLOUDY    39  37  93 S8        29.62F FOG
WASECA         CLOUDY    36  32  87 SE12      29.62F FOG
ALBERT LEA     CLOUDY    39  39 100 S12       29.62F FOG
$$
MNZ078>079-086>088-094>096-230100-
   Southeast Minnesota

CITY           SKY/WX    TMP DP  RH WIND       PRES   REMARKS
ROCHESTER      FOG       37  37 100 S8        29.66F VSB 1/4
6HR MIN TEMP:  35; 6HR MAX TEMP:  37;

RED WING         N/A     37  36  93 SE7       29.66F FOG
STANTON        CLOUDY    38  36  92 S7        29.62F FOG
DODGE CENTER   FOG       37  37 100 S9        29.64S VSB 1/2
WINONA         CLOUDY    36  36 100 SE6       29.70F FOG
AUSTIN         CLOUDY    39  37  93 S8        29.64F FOG
PRESTON        FOG       38  37  98 S8        29.68F VSB 1/4
$$
ABBREVIATIONS USED IN REMARKS
   TC - TEMPERATURES IN CELSIUS
  WCI - WIND CHILL INDEX
   HX - HEAT INDEX
  VSB - VISIBILITY
$$


USA.gov is the U.S. government's official web portal to all federal, state and local government web resources and services.